Regional Weather Roundup
Issued by NWS Lake Charles, LA

Home | Current Version | Previous Version | Text Only | Print | Product List | Glossary On
Versions: 1 2 3 4 5 6 7 8 9 10 11 12 13 14 15 16 17 18 19 20 21 22 23 24 25 26 27 28
000
ASUS44 KLCH 210310
RWRLCH
REGIONAL WEATHER ROUNDUP
NATIONAL WEATHER SERVICE LAKE CHARLES LA
1000 PM CDT SUN AUG 20 2017

Note: "fair" indicates few or no clouds below 12,000 feet with no
significant weather and/or obstructions to visibility.


ACROSS SOUTHEAST TEXAS

CITY           SKY/WX    TMP DP  RH WIND       PRES   REMARKS
BEAUMONT       CLOUDY    82  76  81 SE8       30.01R
BEAUMONT CITY  FAIR      82  77  87 MISG      30.03R
ORANGE         MOCLDY    80  78  95 CALM      30.04R
JASPER           N/A     79  76  91 CALM      30.06R
$$

ACROSS CENTRAL LOUISIANA

CITY           SKY/WX    TMP DP  RH WIND       PRES   REMARKS
LEESVILLE      PTCLDY    76  75  95 CALM      30.03R
FULLERTON      FAIR      77  76  96 CALM      30.01R
ALEXANDRIA INT PTCLDY    82  81  96 CALM      30.01S
ESLER FIELD    PTCLDY    78  78 100 CALM      30.04R FOG
DERIDDER       FAIR      79  77  95 CALM      30.05R
OAKDALE        CLEAR     79  77  93 CALM      30.03R
OPELOUSAS      FAIR      79  76  89 S5        30.04R
$$

ACROSS SOUTHWEST AND SOUTH CENTRAL LOUISIANA

CITY           SKY/WX    TMP DP  RH WIND       PRES   REMARKS
SULPHUR        PTCLDY    83  79  89 CALM      30.04R
LAKE CHARLES   PTCLDY    82  79  90 CALM      30.02R
CHENNAULT INT  CLEAR     79  75  89 CALM      30.02S
CAMERON PHI    CLEAR     86  77  74 SE7       30.02R
DEQUINCY       FAIR      76  74  92 CALM      30.04R
JENNINGS       FAIR      82  75  78 CALM      30.03S
LAFAYETTE      CLEAR     81  74  79 CALM      30.04R
NEW IBERIA     CLEAR     77  73  87 E3        30.04R
ABBEVILLE      FAIR      77  77 100 CALM      30.04R
PATTERSON      CLEAR     77  76  96 CALM      30.05R
SALT POINT       N/A     78  76  93 CALM      30.03R
$$

SELECTED SITES ACROSS THE REGION

CITY           SKY/WX    TMP DP  RH WIND       PRES   REMARKS
HOUSTON BUSH   PTCLDY    84  75  74 SE8       30.01R
HOUSTON HOBBY  PTCLDY    85  73  67 SE5       30.00R
GALVESTON      CLEAR     86  77  74 SE12      30.02R
COLLEGE STAT   CLEAR     87  72  60 SE10      30.00R
CONROE         CLEAR     82  74  76 SE5       30.02R
HUNTSVILLE     CLEAR     86  72  62 VRB5      30.02R
LUFKIN         CLOUDY    78  72  81 E5        30.03R
SHREVEPORT     MOCLDY    79  76  90 CALM      30.02R
MONROE         CLOUDY    81  77  88 CALM      30.04R
NATCHEZ MS     CLEAR     80  77  90 CALM      30.05S
BATON ROUGE    CLEAR     81  77  88 CALM      30.04R
N.O. INTL ARPT PTCLDY    84  75  74 SE6       30.05R
SLIDELL        CLEAR     80  76  87 CALM      30.05R
$$

MARINE REPORTS

STATION/POSITION TIME  SKY/WX   TEMP    WIND        PRES    VSBY
                                AIR SEA DIR/SP/G
                 (UTC)          (F)     (DEG/KT/KT) (MB)    (MI)
BUOY 30 S HIGH I 0150            87 88  120/ 12/ 16 1015.4
WVE H/P(F/S)=  1/ 4

SEA RIM ST PARK  0200            86     130/  6/  8 1016.4R
PORT ARTHUR      0248            86 89  140/  6/  9 1016.8R
SABINE PASS N    0242            87 90  140/ 12/ 13 1017.9R
TEXAS POINT      NOT AVBL
CALCASIEU PASS   0248               88  160/  7/ 10 1015.8R
LK CHARLES BEACH 0248            83 88              1017.4R
MARSH ISLAND     0200            86                   N/A
FRESH WATER LOCK 0248            83 90  110/  4/  5 1016.9R
AMERADA PASS     0248            79 87   60/  1/  3 1017.4R
$$




USA.gov is the U.S. government's official web portal to all federal, state and local government web resources and services.